Regional Weather Roundup
Issued by NWS Bismarck, ND

Home | Current Version | Previous Version | Text Only | Print | Product List | Glossary On
Versions: 1 2 3 4 5 6 7 8 9 10 11 12 13 14 15 16 17 18 19 20 21 22 23 24 25 26 27 28 29 30 31 32 33 34 35 36 37 38 39 40 41 42 43 44 45 46 47 48 49 50
000
ASUS43 KBIS 241010
RWRBIS

NWR BROADCAST TEXT
NATIONAL WEATHER SERVICE BISMARCK ND
500 AM CDT MON APR 24 2017

NOTE: "FAIR" INDICATES FEW OR NO CLOUDS BELOW 12,000 FEET WITH NO
SIGNIFICANT WEATHER AND/OR OBSTRUCTIONS TO VISIBILITY.


CITY           SKY/WX    TMP DP  RH WIND       PRES   REMARKS
WILLISTON      FLURRIES  32  28  85 E8        29.73F
MINOT          FLURRIES  30  27  88 NE12      29.77F
MINOT AFB      FLURRIES  28  27  93 NE9       29.77F WCI  20
BISMARCK       LGT RAIN  33  32  96 NE15      29.67F
DICKINSON      MIX PCPN  28  27  96 NE15      29.63S VSB 1/4 WCI  16
GARRISON         N/A     29  28  96 E14       29.70F WCI  18
HETTINGER ARPT CLOUDY    31  30  96 NE13      29.63R
JAMESTOWN      CLOUDY    33  31  92 NE9       29.69S
HAZEN          MIX PCPN  30  30 100 NE14      29.71F WCI  20
LINTON         LGT RAIN  32  32 100 NE13G22   29.61F
MANDAN         LGT RAIN  30  30 100 NE14      29.67F WCI  20
STANLEY        FLURRIES  28  28 100 E12G21    29.74F WCI  18
TIOGA          PTSUNNY   27  27 100 E14G21    29.73F FOG     WCI  15
WATFORD CITY   CLOUDY    30  30 100 E7        29.71S
$$

CITY           SKY/WX    TMP DP  RH WIND       PRES   REMARKS
GRAND FORKS    MOCLDY    35  32  88 NE12      29.78F
GRAND FORKS AF CLOUDY    33  31  91 E12       29.78F
DEVILS LAKE    CLOUDY    30  27  88 E23G30    29.76F WCI  17
FARGO          FAIR      36  30  79 E10       29.69F
CAVALIER       PTSUNNY   34  21  60 E10G18    29.86F
GRAFTON        CLOUDY    34  30  86 NE18      29.84F
GWINNER        SUNNY     37  36  93 MISG      29.63F
LANGDON        CLOUDY    32  19  59 E22G28    29.80S WCI  19
ROLLA          CLOUDY    30  18  59 E17       29.81F WCI  18
$$

CITY           SKY/WX    TMP DP  RH WIND       PRES   REMARKS
ABERDEEN       FAIR      40  36  86 NW7       29.58F
MOBRIDGE       CLOUDY    37  33  85 NE17G25   29.53F
BUFFALO          N/A     34  33  96 NE9       29.58R
RAPID CITY     CLOUDY    38  37  97 N15       29.59R
GLASGOW        CLOUDY    32  30  92 E10       29.70S
SIDNEY         MIX PCPN  32  30  92 NE7       29.72S
WOLF POINT     CLOUDY    33  30  88 E9        29.72F
GLENDIVE       MIX PCPN  32  31  96 NE10      29.68F
MILES CITY     CLOUDY    41  38  89 N3        29.65F
BAKER          MIX PCPN  32  30  92 E15       29.62F
$$

CITY           SKY/WX    TMP DP  RH WIND       PRES   REMARKS
BILLINGS       FAIR      43  38  82 SW7       29.66F
GREAT FALLS    FAIR      38  35  89 SW9       29.66F
REGINA         LGT SNOW  27  27 100 SE17G23   29.82F VSB 1   WCI  14
ESTEVAN        LGT SNOW  28  25  86 E13G21    29.79F DRFTSNOWWCI  18
$$




USA.gov is the U.S. government's official web portal to all federal, state and local government web resources and services.